Weather Roundup
Issued by NWS Chicago, IL

Home | Current Version | Previous Version | Graphics & Text | Print | Product List | Glossary On
Versions: 1 2 3 4 5 6 7 8 9 10 11 12 13 14 15 16 17 18 19 20 21 22 23 24 25 26 27 28 29 30 31 32 33 34 35 36 37 38 39 40 41 42 43 44 45 46 47 48 49 50
386
NZUS59 KLOT 260008
HRRLOT

CHICAGO AREA WEATHER ROUNDUP
NATIONAL WEATHER SERVICE CHICAGO/ROMEOVILLE IL
700 PM CDT SAT MAR 25 2017

NOTE: "FAIR" INDICATES FEW OR NO CLOUDS BELOW 12,000 FEET WITH NO
SIGNIFICANT WEATHER AND/OR OBSTRUCTIONS TO VISIBILITY.

* THESE STATIONS ARE NOT UNDER NWS QUALITY CONTROL. THEY ALSO MAY NOT
  REPORT WEATHER SUCH AS PRECIPITATION OR FOG.

ILZ005-006-012>014-019>023-260100-
NORTHEAST ILLINOIS

CITY           SKY/WX    TMP DP  RH WIND       PRES   REMARKS
OHARE          LGT RAIN  43  41  93 NE9       29.98S FOG
6HR MIN TEMP:  43; 6HR MAX TEMP:  44; 6HR PCP:  0.14;

MIDWAY         CLOUDY    46  44  93 N10       29.98S FOG
6HR MIN TEMP:  45; 6HR MAX TEMP:  48; 6HR PCP:  0.15;

AURORA         CLOUDY    46  43  89 NE12      29.96S
6HR MIN TEMP:  45; 6HR MAX TEMP:  47; 6HR PCP: TRACE;

LANSING*       CLOUDY    46  46 100 N6        29.97S FOG
JOLIET*        CLOUDY    48  47  97 NE7       29.95S FOG
WAUKEGAN       LGT RAIN  40  40 100 NE9       30.01S FOG
6HR MIN TEMP:  38; 6HR MAX TEMP:  40; 6HR PCP:  0.06;

DUPAGE AIRPORT CLOUDY    43  43 100 NE12      29.97S
6HR MIN TEMP:  42; 6HR MAX TEMP:  43; 6HR PCP:  0.03;

WHEELING       LGT RAIN  41  41 100 N12       30.00F FOG
6HR MIN TEMP:  40; 6HR MAX TEMP:  41; 6HR PCP:  0.10;

KANKAKEE*      RAIN      55  55  98 CALM      29.95R
MORRIS*        CLOUDY    49  47  95 NE6       29.94R FOG
LEWIS AIRPORT* CLOUDY    46  46 100 NE10      29.96R FOG
NORTHERLY ISL    N/A     42  41  96 N12         N/A
$$

WIZ051-052-058>065-066-070>072-260100-
SOUTHEAST WISCONSIN

CITY           SKY/WX    TMP DP  RH WIND       PRES   REMARKS
MILWAUKEE      LGT RAIN  39  36  89 NE13      30.07R
6HR MIN TEMP:  39; 6HR MAX TEMP:  39; 6HR PCP:  0.10;

KENOSHA*       LGT RAIN  40  39  97 NE13      30.03S FOG
RACINE*        LGT RAIN  39  37  92 NE12      30.07S
WAUKESHA       DRIZZLE   36  36 100 E12G18    30.06S
WEST BEND      DRIZZLE   36  36 100 NE14G22   30.08S
$$

INZ001>003-010>013-019-020-260100-
NORTHWEST INDIANA

CITY           SKY/WX    TMP DP  RH WIND       PRES   REMARKS
GARY*          CLOUDY    46  45  93 CALM      29.98R FOG
MICHIGAN CITY* NOT AVBL
RENSSELAER*    NOT AVBL
VALPARAISO     CLOUDY    57  55  93 E12       29.98R FOG
$$

LMZ740>746-260100-
SOUTHERN LAKE MICHIGAN

STATION/POSITION TIME  SKY/WX   TEMP WIND        PRES    VSBY
                                AIR  DIR/SP/G
                 (UTC)          (F)  (DEG/KT/KT) (MB)    (MI)
HARRISON CRIB    2340                340/ 14/ 14   N/A
BURNHAM HARBOR   0000                340/ 10/ 14   N/A
CALUMET HARBOR   2348            41  330/ 10/ 14 1014.5R
BURNS HARBOR     2340            43  270/  2/  3 1015.6R
MICHIGAN CITY    2340            56  100/ 11/ 14   N/A
$$

ABBREVIATIONS USED IN REMARKS
   TC - TEMPERATURE IN CELSIUS
  WCI - WIND CHILL INDEX
   HX - HEAT INDEX
  VSB - VISIBILITY
$$




USA.gov is the U.S. government's official web portal to all federal, state and local government web resources and services.